Find Starlink 34946

NORAD ID: 65367 Int'l Des: 2025-190 Owner: SPXS Country: US Constellation: starlink operational
LEOCIRCULAR

リアルタイム位置

3D地球を読み込み中...

Starlink 34946について

説明を読み込み中...

次回通過

Passes for default location (London). Set your location on the main map for personalized predictions.

高度履歴

Loading altitude history...

軌道要素

1 65367U 25190S 26104.93760152 .00003338 00000-0 12479-3 0 9993
2 65367 53.1592 359.8963 0001232 99.2717 260.8423 15.30195557 35307
Epoch: Apr 14, 2026 • Age: 7 hours

現在のステータス

高度 479.9 km
速度 7.63 km/s
衛星直下点 -16.79°S, 96.6°W
打ち上げ日 Aug 28, 2025
運用期間 0.6 years
タイプ internet

技術仕様

分類 Payload
質量 575.00 kg
乾燥質量 530.00 kg
総質量 575.00 kg
長さ 0.30 m
直径 4.10 m
スパン 29.00 m
形状 Box + pan
製造者 SPXS
バスタイプ Starlink V2MO
フェーズステータス In Orbit
所有者/国 SPXS/US

Most Searched